N4MRV-1 Weather Reports


time (UTC)temp
F
wind
direction
speed
knots
gust
knots
rain 1hr
in
rain 24hr
in
rain mn
in
humidity
%
barometer
mb
20260901173017 91 315 0.9 2.6 0.00 0.00 0.00 55 1016.7
20260901171517 91 315 0.9 3.5 0.00 0.00 0.00 57 1016.8
20260901170017 91 248 0.9 3.5 0.00 0.00 0.00 60 1016.9
20260901164517 91 315 0.9 3.5 0.00 0.00 0.00 60 1017.1
20260901163017 91 315 0.9 2.6 0.00 0.00 0.00 60 1017.4
20260901161517 91 315 0.9 3.5 0.00 0.00 0.00 63 1017.6
20260901160017 91 338 0.9 6.1 0.00 0.00 0.00 64 1017.8
20260901154517 90 315 0.9 4.3 0.00 0.00 0.00 65 1017.8
20260901153017 89 315 0.9 3.5 0.00 0.00 0.00 67 1018.0
20260901151517 87 0.0 1.7 0.00 0.00 0.00 73 1018.0
20260901150017 85 338 0.9 2.6 0.00 0.00 0.00 76 1018.1
20260901144517 83 338 0.9 4.3 0.00 0.00 0.00 80 1018.2
20260901143017 82 315 0.9 2.6 0.00 0.00 0.00 83 1018.1
20260901141517 81 0.0 2.6 0.00 0.00 0.00 85 1018.2
20260901140017 80 338 0.9 3.5 0.00 0.00 0.00 86 1018.1
20260901134516 78 315 0.9 4.3 0.00 0.00 0.00 91 1018.1
20260901133016 77 315 0.9 3.5 0.00 0.00 0.00 95 1018.0
20260901131516 76 0.0 1.7 0.00 0.00 0.00 96 1018.1
20260901130016 76 0.0 2.6 0.00 0.00 0.00 95 1018.3
20260901124516 75 0.0 0.9 0.00 0.00 0.00 95 1018.2
20260901123016 74 0.0 0.9 0.00 0.00 0.00 95 1018.3
20260901121516 73 0.0 0.9 0.00 0.00 0.00 95 1018.3
20260901120016 72 0.0 0.9 0.00 0.00 0.00 94 1018.3
20260901114516 72 0.0 0.0 0.00 0.00 0.00 94 1018.2
20260901113016 72 0.0 0.0 0.00 0.00 0.00 94 1018.1
20260901111536 72 0.0 0.0 0.00 0.00 0.00 94 1017.9
20260901110016 72 0.0 0.0 0.00 0.00 0.00 94 1017.9
20260901104516 72 0.0 0.0 0.00 0.00 0.00 94 1017.6
20260901103016 72 0.0 0.0 0.00 0.00 0.00 93 1017.5
20260901101516 72 0.0 0.9 0.00 0.00 0.00 93 1017.5
20260901100016 72 0.0 0.0 0.00 0.00 0.00 93 1017.7
20260901094536 72 0.0 0.0 0.00 0.00 0.00 93 1017.6
20260901093016 72 0.0 0.0 0.00 0.00 0.00 93 1017.5
20260901091536 72 0.0 0.0 0.00 0.00 0.00 93 1017.5
20260901090016 72 0.0 0.0 0.00 0.00 0.00 92 1017.6
20260901084516 72 0.0 0.0 0.00 0.00 0.00 92 1017.6
20260901083016 72 0.0 0.0 0.00 0.00 0.00 92 1017.7
20260901081536 72 0.0 0.0 0.00 0.00 0.00 92 1017.7
20260901080016 72 0.0 0.9 0.00 0.00 0.00 92 1017.7
20260901074536 72 0.0 0.0 0.00 0.00 0.00 91 1017.6
20260901073016 72 0.0 0.0 0.00 0.00 0.00 91 1017.7
20260901071516 73 0.0 0.0 0.00 0.00 0.00 91 1017.8
20260901070015 73 0.0 0.0 0.00 0.00 0.00 91 1018.1
20260901064536 73 0.0 0.0 0.00 0.00 0.00 90 1018.2
20260901063016 73 0.0 0.0 0.00 0.00 0.00 90 1018.3
20260901061516 73 0.0 0.0 0.00 0.00 0.00 89 1018.3
20260901060016 74 0.0 0.0 0.00 0.00 0.00 89 1018.4
20260901054516 74 0.0 0.0 0.00 0.00 0.00 89 1018.6
20260901053016 74 0.0 0.0 0.00 0.00 0.00 88 1018.6
20260901051516 74 0.0 0.0 0.00 0.00 0.00 88 1018.8
20260901050015 75 0.0 0.0 0.00 0.00 0.00 87 1018.9
20260901044516 75 0.0 0.0 0.00 0.00 0.00 87 1019.0
20260901043015 75 0.0 0.0 0.00 0.00 0.00 86 1018.9
20260901041515 76 0.0 0.0 0.00 0.00 0.00 86 1018.9
20260901040015 76 0.0 0.0 0.00 0.00 0.00 85 1018.8
20260901034516 77 0.0 0.9 0.00 0.00 0.00 85 1018.8
20260901033016 77 0.0 0.0 0.00 0.00 0.00 84 1018.8
20260901031516 77 0.0 0.0 0.00 0.00 0.00 83 1018.7
20260901030016 78 0.0 0.0 0.00 0.00 0.00 82 1018.7
20260901024516 78 0.0 0.0 0.00 0.00 0.00 82 1018.7
20260901023016 79 0.0 0.9 0.00 0.00 0.00 81 1018.5
20260901021516 79 0.0 0.9 0.00 0.00 0.00 80 1018.6
20260901020016 80 0.0 0.9 0.00 0.00 0.00 79 1018.8
20260901014516 80 0.0 1.7 0.00 0.00 0.00 79 1018.7
20260901013036 81 0.0 2.6 0.00 0.00 0.00 78 1018.7
20260901011516 81 0.0 0.9 0.00 0.00 0.00 77 1018.6
20260901010015 82 0.0 0.9 0.00 0.00 0.00 75 1018.6
20260901004516 82 0.0 0.9 0.00 0.00 0.00 74 1018.5
20260901003036 83 0.0 0.9 0.00 0.00 0.00 73 1018.6
20260901001516 83 0.0 0.9 0.00 0.00 0.00 73 1018.5
20260901000016 83 0.0 0.9 0.00 0.00 0.00 72 1018.4
20260831234536 84 0.0 0.9 0.00 0.00 0.00 71 1018.2
20260831233016 85 0.0 0.0 0.00 0.00 0.00 72 1018.3
20260831231516 86 0.0 0.0 0.00 0.00 0.00 70 1018.3
20260831230016 86 0.0 0.0 0.00 0.00 0.00 68 1018.2
20260831224536 87 0.0 0.9 0.00 0.00 0.00 67 1018.1
20260831223035 87 0.0 0.9 0.00 0.00 0.00 65 1018.2
20260831221516 88 0.0 0.9 0.00 0.00 0.00 63 1018.3
20260831220015 88 0.0 2.6 0.00 0.00 0.00 61 1018.3
20260831214535 89 270 0.9 1.7 0.00 0.00 0.00 60 1018.2
20260831213015 89 0.0 0.9 0.00 0.00 0.00 59 1018.1
20260831211535 89 225 0.9 2.6 0.00 0.00 0.00 61 1018.0
20260831210015 89 293 0.9 2.6 0.00 0.00 0.00 59 1018.0
20260831204515 89 293 0.9 2.6 0.00 0.00 0.00 60 1018.0
20260831203035 89 293 0.9 5.2 0.00 0.00 0.00 61 1018.1
20260831201515 89 315 0.9 3.5 0.00 0.00 0.00 61 1018.1
20260831200015 89 315 0.9 3.5 0.00 0.00 0.00 60 1018.2
20260831194515 89 270 0.9 2.6 0.00 0.00 0.00 61 1018.3
20260831193015 89 293 0.9 4.3 0.00 0.00 0.00 62 1018.4
20260831191517 89 293 0.9 4.3 0.00 0.00 0.00 63 1018.4
20260831190017 88 293 0.9 3.5 0.00 0.00 0.00 63 1018.7
20260831184517 88 315 1.7 5.2 0.00 0.00 0.00 61 1018.8
20260831183017 88 315 0.9 3.5 0.00 0.00 0.00 63 1018.9
20260831181517 88 293 1.7 3.5 0.00 0.00 0.00 62 1018.9
20260831180017 88 0 0.9 2.6 0.00 0.00 0.00 65 1019.1
20260831174517 88 315 0.9 3.5 0.00 0.00 0.00 65 1019.2